This is the latest recevied weather packets stored in our database for station/object IU2EVW-3. If no packets are shown the sender has not sent any weather packets the latest 10 day(s).
| Time | Temp. | Humidity | Pressure | Rain* | Wind** | Luminosity | Snow |
|---|---|---|---|---|---|---|---|
| 1777630851 | 15.56° C | 33% | 1029 hPa | - | - | - | - |
| 1777629650 | 15.56° C | 33% | 1029.1 hPa | - | - | - | - |
| 1777628449 | 15° C | 34% | 1029.2 hPa | - | - | - | - |
| 1777627248 | 14.44° C | 33% | 1029.3 hPa | - | - | - | - |
| 1777626046 | 15° C | 34% | 1029.4 hPa | - | - | - | - |
| 1777624845 | 14.44° C | 35% | 1029.4 hPa | - | - | - | - |
| 1777623644 | 13.89° C | 34% | 1029.3 hPa | - | - | - | - |
| 1777622443 | 13.33° C | 34% | 1029.2 hPa | - | - | - | - |
| 1777621242 | 13.89° C | 33% | 1029.1 hPa | - | - | - | - |
| 1777620041 | 13.33° C | 33% | 1029.1 hPa | - | - | - | - |
| 1777618839 | 14.44° C | 34% | 1028.9 hPa | - | - | - | - |
| 1777617638 | 14.44° C | 36% | 1028.8 hPa | - | - | - | - |
| 1777616437 | 13.33° C | 38% | 1028.6 hPa | - | - | - | - |
| 1777615236 | 12.22° C | 39% | 1028.6 hPa | - | - | - | - |
| 1777614035 | 11.67° C | 40% | 1028.4 hPa | - | - | - | - |
| 1777612833 | 11.11° C | 41% | 1028.2 hPa | - | - | - | - |
| 1777611632 | 11.11° C | 42% | 1028.1 hPa | - | - | - | - |
| 1777610431 | 10.56° C | 44% | 1028 hPa | - | - | - | - |
| 1777609230 | 10.56° C | 45% | 1027.7 hPa | - | - | - | - |
| 1777608029 | 10° C | 45% | 1027.6 hPa | - | - | - | - |
| 1777606827 | 10° C | 45% | 1027.4 hPa | - | - | - | - |
| 1777605626 | 10° C | 44% | 1027.3 hPa | - | - | - | - |
| 1777604425 | 10.56° C | 44% | 1027.3 hPa | - | - | - | - |
| 1777603224 | 10° C | 44% | 1027.3 hPa | - | - | - | - |
| 1777602023 | 10.56° C | 44% | 1027.4 hPa | - | - | - | - |
* Rain since midnight (hover to see other rain measurements)
** Current wind speed in m/s (hover to see current wind gust speed)